This is the latest recevied weather packets stored in our database for station/object W4DHW-4. If no packets are shown the sender has not sent any weather packets the latest 10 day(s).
| Time | Temp. | Humidity | Pressure | Rain* | Wind** | Luminosity | Snow |
|---|---|---|---|---|---|---|---|
| 1777862981 | 8.89° C | 67% | 1016.5 hPa | 0 mm | - | 0 W/m² | - |
| 1777862677 | 9.44° C | 66% | 1016.8 hPa | 0 mm | - | 0 W/m² | - |
| 1777862374 | 9.44° C | 61% | 1016.7 hPa | 0 mm | - | 0 W/m² | - |
| 1777862071 | 9.44° C | 60% | 1016.8 hPa | 0 mm | - | 0 W/m² | - |
| 1777861766 | 9.44° C | 58% | 1016.6 hPa | 0 mm | - | 0 W/m² | - |
| 1777861463 | 8.89° C | 60% | 1016.7 hPa | 0 mm | - | 0 W/m² | - |
| 1777861160 | 8.89° C | 65% | 1016.6 hPa | 0 mm | - | 0 W/m² | - |
| 1777860857 | 8.89° C | 64% | 1016.6 hPa | 0 mm | - | 0 W/m² | - |
| 1777860555 | 8.89° C | 65% | 1016.4 hPa | 0 mm | - | 0 W/m² | - |
| 1777860251 | 8.89° C | 61% | 1016.6 hPa | 0 mm | - | 0 W/m² | - |
| 1777859948 | 8.89° C | 60% | 1016.6 hPa | 0 mm | - | 0 W/m² | - |
| 1777859643 | 8.89° C | 59% | 1016.5 hPa | 0 mm | - | 0 W/m² | - |
| 1777859340 | 9.44° C | 62% | 1016.4 hPa | 0 mm | - | 0 W/m² | - |
| 1777859035 | 8.89° C | 64% | 1016.2 hPa | 0 mm | - | 0 W/m² | - |
| 1777858733 | 9.44° C | 63% | 1016.3 hPa | 0 mm | - | 0 W/m² | - |
| 1777858431 | 9.44° C | 62% | 1016.2 hPa | 0 mm | - | 0 W/m² | - |
| 1777858127 | 10° C | 59% | 1016.2 hPa | 0 mm | - | 0 W/m² | - |
| 1777857825 | 10° C | 58% | 1016.1 hPa | 0 mm | - | 0 W/m² | - |
| 1777857522 | 10° C | 56% | 1016.1 hPa | 0 mm | - | 0 W/m² | - |
| 1777857219 | 10° C | 56% | 1015.6 hPa | 0 mm | - | 0 W/m² | - |
| 1777856915 | 10.56° C | 55% | 1015.6 hPa | 0 mm | - | 0 W/m² | - |
| 1777856610 | 10.56° C | 54% | 1015.8 hPa | 0 mm | - | 0 W/m² | - |
| 1777856307 | 11.11° C | 53% | 1015.9 hPa | 0 mm | - | 0 W/m² | - |
| 1777856004 | 11.67° C | 50% | 1015.9 hPa | 0 mm | - | 0 W/m² | - |
| 1777855702 | 11.67° C | 51% | 1015.6 hPa | 0 mm | - | 0 W/m² | - |
* Rain latest hour (hover to see other rain measurements)
** Current wind speed in m/s (hover to see current wind gust speed)